Showing default

GEOEYE 1, 33331

Orbit data source: Space-Track

GEOEYE 1, 33331 is a payload satellite owned by GeoEye (US) in SSO that was launched on Sat, 06 Sep 2008 UTC via a DELTA 7420-10C launch vehicle from the Air Force Western Test Range (AFWTR). Payload-class satellites include a variety of spacecraft equipped with specific instruments for various scientific and technological missions. These include communications satellites like Starlink; space stations such as the ISS; scientific satellites like the Hubble; Earth observation satellites from companies like Planet Labs, Umbra, and HawkEye 360; GPS; miniature CubeSats for education and research; and military/defense satellites.

Loading next visibility...
Identifier
33331, 2008-042A
Orbit
SSO
Country
Flag of USUS
Related business
Manufacturer
GD C4 Systems
Mission
Operational Commercial Imaging
Bus & Motor
SA-200HP, AOCS
Mass
1,923 kg wet, 1,779 kg dry
Launch date (UTC)
2008-09-06 (17 years ago)
Launch vehicle
DELTA 7420-10C
Launch site
Air Force Western Test Range (AFWTR)
Object type
Payload
Rocket body
Debris
Shape & HBR
Hex Cyl + 1 Pan, 3.6 m
Radar Cross Section
11.719 m², Large (>1 m²)

Expand to show TLE details & history
Last TLE update: 17 hours ago

TLE from 17 hours ago
0 GEOEYE 1
1 33331U 08042A   25348.91040597  .00000627  00000-0  12649-3 0  9994
2 33331  98.1251  60.1641 0002728 265.9748  94.1143 14.64815516923174
Epoch: 2025-12-14T21:50Z
TLE epoch observation values (Epoch: 2025-12-14T21:50:59.075Z)
Latitude
-0.00006°
Longitude
8.60142°
Altitude
680.8 km
Speed
7.516 km/s
True Right ascension
04h 00m 39s
True Declination
0° 00' 00"
Sunlit
Object was in full shadow at epoch
Visualization orbit readout
Latitude
Unknown
Longitude
Unknown
Altitude
Unknown
Speed
Unknown
Apparent Right ascension
Unknown
Apparent Declination
Unknown
Sunlit
N/A
Visualization observer readout
Local Sidereal Time
13:25:40
Azimuth
Unknown
Elevation
Unknown
Doppler factor
Unknown
Orbital elements
Apogee altitude
676.663 km
Perigee altitude
672.815 km
Semi-major axis
7,052.876 km
Eccentricity
0.00027
Inclination
98.1251°
RAAN
60.1641°
Arg. of periapsis
265.9748°
True anomaly
94.14548°
Mean anomaly
94.1143°
Eccentric anomaly
94.12989°
Mean motion
3.66432 °/min
Orbital period
98.24 mins
BSTAR
0.00012649
Loading maneuver chart data...
Computing Atmospheric mass density...
Loading historical data...
Loading historical data...
Loading historical data...
Loading historical data...
Loading historical data...
Loading historical data...
Loading historical data...
Other satellites on launch #42 in the year 2008 (2008-09-06 UTC)

Documentation

Showing up to 5 results
|